Date String (YYYY-MM-DD hh:mm:ss) UTC,Instrument flags,Ambient pressure (hPa),Sample flow (lpm),Bypass flow (lpm),Sample temperature (°C),Ambient temperature (°C),ASC tube jacket temperature (°C),LED temperature (°C),Box temperature (°C),Sample RH (%),Span deviation,Mass concentration (μg/m³),Mass concentration (μg/m³),Mass concentration (μg/m³)
DateTimeUTC,F1_M11,P_M11,Q1_M11,Q2_M11,T1_M11,T2_M11,T3_M11,T4_M11,T5_M11,U1_M11,ZSPAN_M11,X2_M11,X0_M11,X1_M11
2022-10-07 20:00:00,,0837.2,5.01,0.00,26.5,25.1,00.0,35.2,28.4,21.7,-001.5,0009.38,0018.18,0007.70
2022-10-07 20:01:00,,0837.2,5.00,0.00,26.5,25.1,00.0,35.2,28.4,21.9,-001.1,0009.41,0018.44,0007.70
2022-10-07 20:02:00,,0837.2,5.00,0.00,26.5,25.1,00.0,35.2,28.4,22.0,-001.0,0009.35,0018.57,0007.70
2022-10-07 20:03:00,,0837.2,5.00,0.00,26.5,25.1,00.0,35.2,28.4,21.8,-000.8,0009.33,0018.87,0007.70
2022-10-07 20:04:00,,0837.2,4.99,0.00,26.5,25.1,00.0,35.2,28.4,21.9,-000.5,0009.37,0019.11,0007.72
2022-10-07 20:05:00,,0837.1,5.00,0.00,26.5,25.1,00.0,35.2,28.4,21.9,-000.1,0009.41,0018.80,0007.74
2022-10-07 20:06:00,,0837.1,5.01,0.00,26.5,25.1,00.0,35.2,28.4,21.8,0000.3,0009.44,0017.63,0007.77
2022-10-07 20:07:00,,0837.1,5.01,0.00,26.5,25.1,00.0,35.2,28.4,21.6,0000.5,0009.44,0017.84,0007.77
2022-10-07 20:08:00,,0837.1,4.99,0.00,26.5,25.1,00.0,35.2,28.4,21.5,0000.0,0009.42,0018.34,0007.75
2022-10-07 20:09:00,,0837.1,5.00,0.00,26.5,25.1,00.0,35.2,28.4,21.6,-000.1,0009.30,0018.31,0007.72
2022-10-07 20:10:00,,0837.0,4.99,0.00,26.5,25.1,00.0,35.2,28.4,22.0,0000.3,0009.24,0017.46,0007.73
2022-10-07 20:11:00,,0837.0,5.01,0.00,26.5,25.1,00.0,35.2,28.4,22.0,0000.1,0009.20,0017.89,0007.74
2022-10-07 20:12:00,,0837.0,4.99,0.00,26.5,25.1,00.0,35.2,28.4,21.8,-000.4,0009.15,0017.45,0007.74
2022-10-07 20:13:00,,0836.9,4.99,0.00,26.5,25.1,00.0,35.2,28.4,21.8,-000.2,0009.21,0017.77,0007.76
2022-10-07 20:14:00,,0836.9,5.01,0.00,26.5,25.1,00.0,35.2,28.4,21.9,-000.2,0009.23,0017.63,0007.79
2022-10-07 20:15:00,,0836.9,4.99,0.00,26.5,25.1,00.0,35.2,28.4,22.0,-000.1,0009.23,0017.43,0007.81
2022-10-07 20:16:00,,0837.0,5.00,0.00,26.5,25.1,00.0,35.2,28.4,22.0,-000.5,0009.16,0017.22,0007.79
2022-10-07 20:17:00,,0837.0,5.00,0.00,26.5,25.1,00.0,35.2,28.4,21.9,-000.9,0009.12,0017.22,0007.77
2022-10-07 20:18:00,,0837.0,5.01,0.00,26.5,25.1,00.0,35.2,28.4,21.8,-001.3,0009.10,0016.91,0007.76
2022-10-07 20:19:00,,0837.0,5.00,0.00,26.5,25.1,00.0,35.2,28.4,21.9,-001.2,0009.09,0016.81,0007.78
2022-10-07 20:20:00,,0837.1,4.99,0.00,26.5,25.1,00.0,35.2,28.4,22.0,-001.2,0009.15,0016.69,0007.80
2022-10-07 20:21:00,,0837.1,5.00,0.00,26.5,25.1,00.0,35.2,28.4,22.1,-001.7,0009.20,0016.79,0007.81
2022-10-07 20:22:00,,0837.0,5.02,0.00,26.5,25.1,00.0,35.2,28.4,22.1,-001.7,0009.18,0016.62,0007.82
2022-10-07 20:23:00,,0837.1,4.99,0.00,26.5,25.1,00.0,35.2,28.4,22.0,-001.8,0009.21,0016.56,0007.84
2022-10-07 20:24:00,,0837.1,4.99,0.00,26.5,25.1,00.0,35.2,28.4,22.1,-001.8,0009.19,0016.73,0007.83
2022-10-07 20:25:00,,0837.1,4.99,0.00,26.5,25.1,00.0,35.2,28.4,22.1,-001.9,0009.13,0015.94,0007.81
2022-10-07 20:26:00,,0837.1,4.99,0.00,26.5,25.2,00.0,35.3,28.4,22.2,-002.1,0009.09,0016.22,0007.78
2022-10-07 20:27:00,,0837.1,5.01,0.00,26.5,25.2,00.0,35.3,28.4,22.3,-002.1,0009.05,0016.62,0007.75
2022-10-07 20:28:00,,0837.1,5.00,0.00,26.5,25.2,00.0,35.3,28.4,22.6,-001.9,0009.06,0017.68,0007.73
2022-10-07 20:29:00,,0837.1,4.99,0.00,26.5,25.2,00.0,35.3,28.4,22.3,-001.5,0009.03,0018.39,0007.72
2022-10-07 20:30:00,,0837.1,5.01,0.00,26.5,25.2,00.0,35.3,28.4,22.5,-001.5,0009.07,0018.18,0007.75
2022-10-07 20:31:00,,0837.0,5.01,0.00,26.5,25.2,00.0,35.3,28.5,22.7,-001.3,0009.16,0017.88,0007.78
2022-10-07 20:32:00,,0837.1,4.99,0.00,26.6,25.2,00.0,35.3,28.5,22.7,-001.0,0009.22,0018.72,0007.82
2022-10-07 20:33:00,,0837.1,4.99,0.00,26.6,25.2,00.0,35.3,28.5,22.3,-000.9,0009.33,0019.13,0007.85
2022-10-07 20:34:00,,0837.1,5.01,0.00,26.6,25.2,00.0,35.3,28.5,22.2,-001.0,0009.40,0019.14,0007.89
2022-10-07 20:35:00,,0837.2,4.99,0.00,26.6,25.2,00.0,35.3,28.5,22.1,-001.0,0009.41,0018.74,0007.93
2022-10-07 20:36:00,,0837.2,4.99,0.00,26.6,25.2,00.0,35.3,28.5,22.2,-001.0,0009.43,0018.78,0007.97
2022-10-07 20:37:00,,0837.1,5.00,0.00,26.6,25.2,00.0,35.3,28.5,22.4,-001.1,0009.46,0018.78,0007.99
2022-10-07 20:38:00,,0837.1,5.01,0.00,26.6,25.2,00.0,35.3,28.5,22.3,-001.0,0009.51,0019.19,0008.02
2022-10-07 20:39:00,,0837.1,4.99,0.00,26.6,25.2,00.0,35.3,28.5,22.2,-000.9,0009.53,0019.23,0008.04
2022-10-07 20:40:00,,0837.1,4.99,0.00,26.6,25.2,00.0,35.3,28.5,22.0,-001.1,0009.55,0018.95,0008.04
2022-10-07 20:41:00,,0837.1,5.00,0.00,26.6,25.2,00.0,35.3,28.5,22.2,-001.1,0009.53,0019.18,0008.02
2022-10-07 20:42:00,,0837.1,5.00,0.00,26.6,25.2,00.0,35.3,28.5,22.0,-001.1,0009.45,0019.02,0007.99
2022-10-07 20:43:00,,0837.1,5.00,0.00,26.6,25.2,00.0,35.3,28.5,22.2,-001.0,0009.34,0018.05,0007.94
2022-10-07 20:44:00,,0837.0,5.00,0.00,26.6,25.2,00.0,35.3,28.5,22.6,-000.9,0009.30,0018.21,0007.94
2022-10-07 20:45:00,,0837.0,5.01,0.00,26.6,25.2,00.0,35.3,28.5,22.3,-000.6,0009.27,0018.05,0007.95
2022-10-07 20:46:00,,0836.9,5.00,0.00,26.6,25.2,00.0,35.3,28.5,22.6,-000.7,0009.29,0018.08,0007.95
2022-10-07 20:47:00,,0836.9,4.98,0.00,26.6,25.2,00.0,35.3,28.5,22.7,-000.4,0009.34,0018.10,0007.99
2022-10-07 20:48:00,,0836.9,5.00,0.00,26.6,25.2,00.0,35.3,28.5,22.7,-000.3,0009.40,0018.24,0008.02
2022-10-07 20:49:00,,0836.8,5.01,0.00,26.6,25.2,00.0,35.4,28.6,22.6,-000.6,0009.42,0017.36,0008.06
2022-10-07 20:50:00,,0836.7,5.00,0.00,26.6,25.2,00.0,35.4,28.6,22.8,-000.9,0009.43,0016.37,0008.09
2022-10-07 20:51:00,,0836.6,4.99,0.00,26.6,25.3,00.0,35.4,28.6,22.6,-000.7,0009.38,0016.02,0008.09
2022-10-07 20:52:00,,0836.6,5.00,0.00,26.6,25.3,00.0,35.4,28.6,22.1,-000.5,0009.34,0016.36,0008.06
2022-10-07 20:53:00,,0836.5,5.01,0.00,26.6,25.3,00.0,35.4,28.6,22.0,-000.8,0009.29,0016.58,0008.05
2022-10-07 20:54:00,,0836.5,4.99,0.00,26.6,25.3,00.0,35.4,28.6,22.2,-000.9,0009.29,0016.61,0008.04
2022-10-07 20:55:00,,0836.5,5.00,0.00,26.6,25.3,00.0,35.4,28.6,22.3,-000.8,0009.23,0016.21,0008.00
2022-10-07 20:56:00,,0836.5,5.02,0.00,26.7,25.3,00.0,35.4,28.6,22.2,-001.1,0009.17,0016.20,0007.95
2022-10-07 20:57:00,,0836.5,5.00,0.00,26.7,25.3,00.0,35.4,28.6,22.1,-000.7,0009.10,0017.14,0007.90
2022-10-07 20:58:00,,0836.5,4.99,0.00,26.7,25.3,00.0,35.4,28.6,21.9,-000.8,0009.03,0017.22,0007.82
2022-10-07 20:59:00,,0836.6,5.02,0.00,26.7,25.4,00.0,35.4,28.6,22.1,-001.3,0008.96,0017.13,0007.77
